Needles, CA

5:26 AM PST on November 23, 2017 (GMT -0800)
Needles

Weather History for KEED - May, 2009

Change the Weather History Date:

Saturday, May 9, 2009

  Actual Average Record
Temperature  
Mean Temperature 89 °F 80 °F  
Max Temperature 106 °F 93 °F 110 °F (1923)
Min Temperature 73 °F 66 °F 45 °F (1930)
Degree Days  
Heating Degree Days 0    
Cooling Degree Days 24    
Growing Degree Days 39 (Base 50)    
Moisture  
Dew Point 28 °F    
Average Humidity 11    
Maximum Humidity 19    
Minimum Humidity 7    
Precipitation  
Precipitation 0.00 in 0.00 in 0.19 in (1922)
Month to date precipitation 0.03  
Year to date precipitation 2.29  
Sea Level Pressure  
Sea Level Pressure 29.62 in    
Wind  
Wind Speed 7 mph (SW)    
Max Wind Speed 18 mph    
Max Gust Speed 32 mph    
Visibility 10 miles    
Events      
T = Trace of Precipitation, MM = Missing Value Source: NWS Daily Summary

Daily Weather History Graph

Daily Weather History Graph

Search for Another Location

Airport or City:

Trip Planner

Search our weather history database for the weather conditions in past years. The results will help you decide how hot, cold, wet, or windy it might be!

Date:

Astronomy

May. 09, 2009 Rise Set
Actual Time 5:40 AM PDT 7:30 PM PDT
Civil Twilight 5:12 AM PDT 7:57 PM PDT
Nautical Twilight 4:39 AM PDT 8:31 PM PDT
Astronomical Twilight 4:03 AM PDT 9:06 PM PDT
Moon 8:32 PM PDT (5/9) 5:36 AM PDT (5/9)
Length of Visible Light 14h 45m
Length of Day
13h 50m
Full, 100% of the Moon is Illuminated
May 9
Full
May 17
Last Quarter
May 24
New
May 30
First Quarter
Jun 7
Full

Hourly Weather History & Observations

Time (PDT) Temp. Dew Point Humidity Pressure Visibility Wind Dir Wind Speed Gust Speed Precip Events Conditions
12:56 AM 81.0 °F 21.9 °F 11% 29.60 in 10.0 mi West 5.8 mph - N/A   Clear
1:56 AM 80.1 °F 21.0 °F 11% 29.60 in 10.0 mi SSE 3.5 mph - N/A   Clear
2:56 AM 78.1 °F 21.0 °F 12% 29.60 in 10.0 mi Calm Calm - N/A   Clear
3:56 AM 73.9 °F 21.0 °F 14% 29.62 in 10.0 mi WSW 3.5 mph - N/A   Clear
4:56 AM 73.9 °F 23.0 °F 15% 29.64 in 10.0 mi Calm Calm - N/A   Clear
5:56 AM 73.9 °F 28.9 °F 19% 29.66 in 10.0 mi SSW 5.8 mph - N/A   Clear
6:56 AM 78.1 °F 30.0 °F 17% 29.68 in 10.0 mi SW 4.6 mph - N/A   Clear
7:56 AM 84.0 °F 25.0 °F 12% 29.69 in 10.0 mi North 11.5 mph - N/A   Clear
8:56 AM 88.0 °F 26.1 °F 11% 29.70 in 10.0 mi North 15.0 mph - N/A   Clear
9:56 AM 90.0 °F 26.1 °F 10% 29.71 in 10.0 mi North 11.5 mph - N/A   Clear
10:56 AM 93.0 °F 26.1 °F 9% 29.70 in 10.0 mi Variable 6.9 mph - N/A   Clear
11:56 AM 93.9 °F 26.1 °F 9% 29.68 in 10.0 mi Calm Calm - N/A   Clear
12:56 PM 99.0 °F 27.0 °F 8% 29.65 in 10.0 mi East 5.8 mph - N/A   Clear
1:56 PM 102.0 °F 30.0 °F 8% 29.62 in 10.0 mi WSW 11.5 mph 17.3 mph N/A   Clear
2:56 PM 105.1 °F 30.9 °F 8% 29.57 in 10.0 mi SW 13.8 mph 28.8 mph N/A   Clear
3:56 PM 105.1 °F 28.0 °F 7% 29.56 in 10.0 mi WSW 15.0 mph 32.2 mph N/A   Clear
4:56 PM 105.1 °F 30.0 °F 7% 29.55 in 10.0 mi SSW 18.4 mph 24.2 mph N/A   Clear
5:09 PM 105.8 °F 30.2 °F 7% 29.65 in 10.0 mi WSW 16.1 mph 20.7 mph N/A   Clear
5:56 PM 102.9 °F 28.9 °F 7% 29.55 in 10.0 mi SW 9.2 mph 21.9 mph N/A   Clear
6:56 PM 102.0 °F 30.0 °F 8% 29.54 in 10.0 mi SSW 12.7 mph 18.4 mph N/A   Clear
7:56 PM 99.0 °F 28.9 °F 8% 29.55 in 10.0 mi South 12.7 mph 17.3 mph N/A   Clear
8:56 PM 93.0 °F 30.0 °F 11% 29.57 in 10.0 mi SSW 3.5 mph - N/A   Clear
9:56 PM 93.9 °F 33.1 °F 12% 29.58 in 10.0 mi SSW 8.1 mph - N/A   Clear
10:56 PM 91.0 °F 34.0 °F 13% 29.60 in 10.0 mi West 10.4 mph - N/A   Clear
11:56 PM 87.1 °F 35.1 °F 16% 29.60 in 10.0 mi WSW 9.2 mph - N/A   Clear